This is the latest recevied weather packets stored in our database for station/object SQ4IXR-4. If no packets are shown the sender has not sent any weather packets the latest 10 day(s).
| Time | Temp. | Humidity | Pressure | Rain* | Wind** | Luminosity | Snow |
|---|---|---|---|---|---|---|---|
| 1788087266 | 30.56° C | 33% | 1019 hPa | - | - | - | - |
| 1788086446 | 31.67° C | 32% | 1019 hPa | - | - | - | - |
| 1788085619 | 31.11° C | 34% | 1019.1 hPa | - | - | - | - |
| 1788084798 | 31.11° C | 33% | 1019.1 hPa | - | - | - | - |
| 1788083974 | 28.33° C | 36% | 1019.4 hPa | - | - | - | - |
| 1788083147 | 29.44° C | 36% | 1019.4 hPa | - | - | - | - |
| 1788082324 | 29.44° C | 36% | 1019.4 hPa | - | - | - | - |
| 1788081502 | 30.56° C | 34% | 1019.4 hPa | - | - | - | - |
| 1788080684 | 31.11° C | 34% | 1019.4 hPa | - | - | - | - |
| 1788079884 | 38.33° C | 23% | 1019 hPa | - | - | - | - |
| 1788079069 | 47.78° C | 15% | 1018.5 hPa | - | - | - | - |
| 1788078249 | 50° C | 14% | 1018.5 hPa | - | - | - | - |
| 1788077426 | 50° C | 14% | 1018.5 hPa | - | - | - | - |
| 1788076603 | 51.11° C | 14% | 1018.4 hPa | - | - | - | - |
| 1788075770 | 47.78° C | 17% | 1018.6 hPa | - | - | - | - |
| 1788074953 | 48.89° C | 16% | 1018.5 hPa | - | - | - | - |
| 1788074129 | 50° C | 15% | 1018.3 hPa | - | - | - | - |
| 1788073302 | 48.89° C | 17% | 1018.3 hPa | - | - | - | - |
| 1788072471 | 46.11° C | 19% | 1018.5 hPa | - | - | - | - |
| 1788071640 | 45° C | 21% | 1018.5 hPa | - | - | - | - |
| 1788070808 | 39.44° C | 27% | 1018.9 hPa | - | - | - | - |
| 1788069982 | 38.89° C | 30% | 1018.8 hPa | - | - | - | - |
| 1788069135 | 32.22° C | 45% | 1019.2 hPa | - | - | - | - |
| 1788068298 | 22.22° C | 10% | - | - | - | - | - |
| 1788067467 | 18.33° C | 10% | - | - | - | - | - |
* Rain since midnight (hover to see other rain measurements)
** Current wind speed in m/s (hover to see current wind gust speed)